Home   Weather   Tunis   Past weeks
Flag for Tunisia

Past Weather in Tunis, Tunisia — Yesterday and Last 2 Weeks

Now
75 °F

Scattered clouds.


Feels Like: 77 °F
Forecast: 70 / 64 °F
Wind: 18 mph from Southeast

Location: Tunis-Carthage

Current Time: Oct 23, 2019 at 9:03:40 am

Latest Report: Oct 23, 2019 at 8:30 am


Visibility: N/A

Pressure: 29.95 "Hg

Humidity: 74%

Dew Point: 66 °F

Location of TunisLocation

Past Weather in Tunis — Graph

°F

Tunis Temperature Yesterday

Maximum temperature yesterday: 81 °F (at 11:00 am)
Minimum temperature yesterday: 72 °F (at 2:00 am)
Average temperature yesterday: 75 °F

High & Low Weather Summary for the Past Weeks

 TemperatureHumidityPressure
High88 °F (Oct 19, 2:00 pm)100% (Oct 12, 5:00 am)30.21 "Hg (Oct 12, 5:00 am)
Low59 °F (Oct 12, 5:00 am)38% (Oct 19, 2:00 pm)29.89 "Hg (Oct 8, 7:00 am)
Average74 °F69%30.06 "Hg
* Reported Oct 8 7:00 am — Oct 23 7:30 am, Tunis. Weather by CustomWeather, © 2019

Note: Actual official high and low records may vary slightly from our data, if they occured in-between our weather recording intervals... More about our weather records

Advertising

Tunis Weather History for the Previous 24 Hours

Scroll right to see more
 ConditionsComfort  
Time TempWeatherWind HumidityBarometerVisibility
7:30 am
Wed, Oct 23
75 °FScattered clouds.12 mph78%29.92 "HgN/A
7:00 am73 °FScattered clouds.12 mph83%29.92 "HgN/A
6:30 am73 °FPassing clouds.12 mph83%29.92 "HgN/A
6:00 am73 °FPassing clouds.12 mph78%29.92 "HgN/A
5:00 am73 °FPassing clouds.12 mph78%29.92 "HgN/A
4:00 am73 °FPassing clouds.14 mph78%29.92 "HgN/A
3:30 am73 °FPassing clouds.7 mph74%29.95 "HgN/A
3:00 am73 °FPassing clouds.9 mph74%29.95 "HgN/A
2:30 am73 °FPassing clouds.10 mph74%29.95 "HgN/A
2:00 am73 °FPassing clouds.15 mph74%29.95 "HgN/A
1:30 am75 °FPassing clouds.14 mph65%29.95 "HgN/A
1:00 am73 °FPassing clouds.9 mph69%29.95 "HgN/A
12:30 am73 °FPassing clouds.12 mph69%29.95 "HgN/A
12:00 am75 °FPassing clouds.15 mph69%29.98 "HgN/A
11:30 pm
Tue, Oct 22
75 °FPassing clouds.12 mph65%29.98 "HgN/A
11:00 pm75 °FPassing clouds.12 mph65%29.98 "HgN/A
10:30 pm75 °FPassing clouds.16 mph69%29.98 "HgN/A
10:00 pm75 °FPassing clouds.15 mph69%29.98 "HgN/A
9:30 pm75 °FPassing clouds.14 mph65%29.98 "HgN/A
9:00 pm75 °FPassing clouds.12 mph69%29.98 "HgN/A
8:30 pm75 °FPassing clouds.10 mph69%29.98 "HgN/A
8:00 pm75 °FPassing clouds.14 mph69%29.98 "HgN/A
7:30 pm75 °FPassing clouds.15 mph69%29.98 "HgN/A
2:00 pm81 °FPassing clouds.18 mph54%29.98 "HgN/A
1:30 pm81 °FPassing clouds.14 mph58%29.98 "HgN/A
1:00 pm81 °FPassing clouds.13 mph58%29.98 "HgN/A
12:30 pm81 °FPassing clouds.13 mph58%30.01 "HgN/A
12:00 pm81 °FPassing clouds.12 mph58%30.01 "HgN/A
11:30 am81 °FPassing clouds.13 mph62%30.04 "HgN/A
11:00 am81 °FPassing clouds.14 mph58%30.04 "HgN/A
10:30 am79 °FPassing clouds.15 mph61%30.04 "HgN/A
10:00 am79 °FPassing clouds.16 mph65%30.04 "HgN/A
9:30 am77 °FPassing clouds.12 mph69%30.04 "HgN/A
9:00 am77 °FPassing clouds.9 mph69%30.04 "HgN/A
Weather by CustomWeather, © 2019

See weather overview